• în Republica Moldova
  • Lista ţărilor
  • Pe 7 zile
  • Temperatura apei
  • Hartă satelitară
  • Meteo pe hartă
  • Widget-uri
  • user-avatar
    Intrare

    Meteo pe oră la Malanje

    Astăzi, 27 Februarie, Luni

    Timp Temperatura Precipitaţii Vânt Presiune Umiditate
    00:00 +20°C° 0,1 mm 1 m/s 663 mmHg 90%
    01:00 +20°C° 0 mm 1 m/s 664 mmHg 93%
    02:00 +20°C° 0,2 mm 1 m/s 663 mmHg 94%
    03:00 +20°C° 0,2 mm 1 m/s 663 mmHg 94%
    04:00 +19°C° 0,2 mm 1 m/s 663 mmHg 95%
    05:00 +20°C° 0 mm 1 m/s 663 mmHg 94%
    06:00 +20°C° 0 mm 1 m/s 664 mmHg 93%
    07:00 +20°C° 0 mm 1 m/s 664 mmHg 92%
    08:00 +21°C° 0,2 mm 1 m/s 664 mmHg 88%
    09:00 +21°C° 0,2 mm 2 m/s 665 mmHg 83%
    10:00 +23°C° 0,2 mm 2 m/s 665 mmHg 78%
    11:00 +23°C° 0,4 mm 2 m/s 664 mmHg 77%
    12:00 +22°C° 0,4 mm 3 m/s 664 mmHg 76%
    13:00 +24°C° 0,4 mm 3 m/s 663 mmHg 75%
    14:00 +24°C° 0 mm 3 m/s 663 mmHg 72%
    15:00 +25°C° 0 mm 2 m/s 663 mmHg 68%
    16:00 +25°C° 0 mm 2 m/s 662 mmHg 65%
    17:00 +24°C° 0 mm 2 m/s 662 mmHg 71%
    18:00 +21°C° 0 mm 2 m/s 662 mmHg 76%
    19:00 +20°C° 0 mm 1 m/s 662 mmHg 82%
    20:00 +20°C° 0 mm 1 m/s 662 mmHg 80%
    21:00 +20°C° 0 mm 1 m/s 663 mmHg 78%
    22:00 +19°C° 0 mm 2 m/s 663 mmHg 76%
    23:00 +19°C° 0 mm 2 m/s 663 mmHg 80%

    Mâine, 28 Februarie, Marţi

    Timp Temperatura Precipitaţii Vânt Presiune Umiditate
    00:00 +19°C° 0 mm 2 m/s 663 mmHg 84%
    01:00 +19°C° 0 mm 3 m/s 663 mmHg 89%
    02:00 +19°C° 0 mm 3 m/s 663 mmHg 91%
    03:00 +18°C° 0 mm 3 m/s 663 mmHg 94%
    04:00 +18°C° 0 mm 3 m/s 663 mmHg 96%
    05:00 +18°C° 0,1 mm 2 m/s 663 mmHg 95%
    06:00 +19°C° 0,1 mm 2 m/s 664 mmHg 94%
    07:00 +19°C° 0,1 mm 2 m/s 664 mmHg 93%
    08:00 +21°C° 0 mm 2 m/s 665 mmHg 83%
    09:00 +22°C° 0 mm 3 m/s 666 mmHg 72%
    10:00 +25°C° 0 mm 3 m/s 666 mmHg 62%
    11:00 +27°C° 0 mm 3 m/s 666 mmHg 55%
    12:00 +28°C° 0 mm 3 m/s 665 mmHg 49%
    13:00 +30°C° 0 mm 4 m/s 665 mmHg 43%
    14:00 +30°C° 0 mm 4 m/s 664 mmHg 43%
    15:00 +30°C° 0 mm 4 m/s 664 mmHg 44%
    16:00 +30°C° 0 mm 4 m/s 663 mmHg 44%
    17:00 +27°C° 0 mm 4 m/s 663 mmHg 51%
    18:00 +25°C° 0 mm 3 m/s 663 mmHg 58%
    19:00 +22°C° 0 mm 3 m/s 663 mmHg 64%
    20:00 +21°C° 0 mm 3 m/s 663 mmHg 68%
    21:00 +20°C° 0 mm 3 m/s 664 mmHg 72%
    22:00 +19°C° 0 mm 2 m/s 664 mmHg 76%
    23:00 +19°C° 0 mm 3 m/s 664 mmHg 81%

    Poimâine, 1 Martie, Miercuri

    Timp Temperatura Precipitaţii Vânt Presiune Umiditate
    00:00 +18°C° 0 mm 3 m/s 664 mmHg 85%
    01:00 +17°C° 0 mm 3 m/s 663 mmHg 89%
    02:00 +17°C° 0 mm 2 m/s 663 mmHg 91%
    03:00 +17°C° 0 mm 2 m/s 663 mmHg 93%
    04:00 +16°C° 0 mm 2 m/s 663 mmHg 96%
    05:00 +17°C° 0 mm 2 m/s 663 mmHg 94%
    06:00 +17°C° 0 mm 2 m/s 664 mmHg 93%
    07:00 +17°C° 0 mm 2 m/s 664 mmHg 91%
    08:00 +20°C° 0 mm 2 m/s 665 mmHg 77%
    09:00 +24°C° 0 mm 3 m/s 666 mmHg 62%
    10:00 +27°C° 0 mm 3 m/s 666 mmHg 47%
    11:00 +28°C° 0 mm 3 m/s 666 mmHg 43%
    12:00 +30°C° 0 mm 3 m/s 666 mmHg 38%
    13:00 +31°C° 0 mm 3 m/s 665 mmHg 33%
    14:00 +32°C° 0 mm 4 m/s 664 mmHg 34%
    15:00 +32°C° 0 mm 4 m/s 664 mmHg 36%
    16:00 +32°C° 0 mm 5 m/s 663 mmHg 37%
    17:00 +28°C° 0 mm 4 m/s 663 mmHg 43%
    18:00 +26°C° 0 mm 4 m/s 663 mmHg 49%
    19:00 +22°C° 0 mm 3 m/s 663 mmHg 55%
    20:00 +22°C° 0 mm 3 m/s 664 mmHg 58%
    21:00 +21°C° 0 mm 3 m/s 664 mmHg 61%
    22:00 +20°C° 0 mm 4 m/s 665 mmHg 64%
    23:00 +19°C° 0 mm 4 m/s 665 mmHg 72%

    2 Martie, Joi

    Timp Temperatura Precipitaţii Vânt Presiune Umiditate
    00:00 +19°C° 0 mm 4 m/s 664 mmHg 79%
    01:00 +18°C° 0 mm 3 m/s 664 mmHg 87%
    02:00 +17°C° 0 mm 3 m/s 664 mmHg 90%
    03:00 +17°C° 0 mm 3 m/s 663 mmHg 92%
    04:00 +16°C° 0 mm 3 m/s 663 mmHg 95%
    05:00 +17°C° 0 mm 3 m/s 664 mmHg 94%
    06:00 +17°C° 0 mm 3 m/s 664 mmHg 93%
    07:00 +17°C° 0 mm 3 m/s 665 mmHg 92%
    08:00 +19°C° 0 mm 3 m/s 665 mmHg 79%
    09:00 +22°C° 0 mm 3 m/s 666 mmHg 67%
    10:00 +25°C° 0 mm 3 m/s 667 mmHg 54%
    11:00 +26°C° 0 mm 3 m/s 666 mmHg 48%
    12:00 +28°C° 0 mm 3 m/s 666 mmHg 43%
    13:00 +29°C° 0 mm 3 m/s 665 mmHg 37%
    14:00 +29°C° 0 mm 4 m/s 665 mmHg 37%
    15:00 +30°C° 0 mm 4 m/s 664 mmHg 37%
    16:00 +30°C° 0 mm 4 m/s 664 mmHg 38%
    17:00 +28°C° 0 mm 3 m/s 664 mmHg 42%
    18:00 +26°C° 0 mm 3 m/s 664 mmHg 46%
    19:00 +24°C° 0 mm 3 m/s 664 mmHg 51%
    20:00 +22°C° 0 mm 3 m/s 664 mmHg 53%
    21:00 +21°C° 0 mm 2 m/s 664 mmHg 56%
    22:00 +20°C° 0 mm 2 m/s 665 mmHg 58%
    23:00 +19°C° 0 mm 2 m/s 664 mmHg 63%

    3 Martie, Vineri

    Timp Temperatura Precipitaţii Vânt Presiune Umiditate
    00:00 +19°C° 0 mm 2 m/s 664 mmHg 67%
    01:00 +18°C° 0 mm 2 m/s 663 mmHg 71%
    02:00 +17°C° 0 mm 2 m/s 663 mmHg 76%
    03:00 +16°C° 0 mm 2 m/s 663 mmHg 81%
    04:00 +15°C° 0 mm 1 m/s 662 mmHg 86%
    05:00 +16°C° 0 mm 1 m/s 663 mmHg 83%
    06:00 +18°C° 0 mm 1 m/s 664 mmHg 80%
    07:00 +19°C° 0 mm 1 m/s 664 mmHg 76%
    08:00 +21°C° 0 mm 2 m/s 665 mmHg 63%
    09:00 +25°C° 0 mm 2 m/s 666 mmHg 50%
    10:00 +28°C° 0 mm 3 m/s 666 mmHg 36%
    11:00 +30°C° 0 mm 3 m/s 666 mmHg 33%
    12:00 +32°C° 0 mm 4 m/s 665 mmHg 29%
    13:00 +34°C° 0 mm 4 m/s 665 mmHg 26%
    14:00 +34°C° 0 mm 4 m/s 665 mmHg 27%
    15:00 +33°C° 0 mm 4 m/s 664 mmHg 28%
    16:00 +33°C° 0 mm 5 m/s 663 mmHg 29%
    17:00 +29°C° 0 mm 4 m/s 663 mmHg 34%
    18:00 +27°C° 0 mm 3 m/s 663 mmHg 39%
    19:00 +24°C° 0 mm 3 m/s 663 mmHg 45%
    20:00 +22°C° 0 mm 3 m/s 663 mmHg 48%
    21:00 +21°C° 0 mm 3 m/s 663 mmHg 51%
    22:00 +20°C° 0 mm 3 m/s 664 mmHg 54%
    23:00 +19°C° 0 mm 3 m/s 663 mmHg 61%

    4 Martie, Sâmbătă

    Timp Temperatura Precipitaţii Vânt Presiune Umiditate
    00:00 +18°C° 0 mm 3 m/s 663 mmHg 67%
    01:00 +17°C° 0 mm 2 m/s 662 mmHg 74%
    02:00 +17°C° 0 mm 2 m/s 662 mmHg 77%
    03:00 +16°C° 0 mm 2 m/s 662 mmHg 80%
    04:00 +15°C° 0 mm 2 m/s 662 mmHg 83%
    05:00 +16°C° 0 mm 2 m/s 663 mmHg 80%
    06:00 +17°C° 0 mm 2 m/s 663 mmHg 78%
    07:00 +19°C° 0 mm 1 m/s 664 mmHg 75%
    08:00 +21°C° 0 mm 2 m/s 665 mmHg 62%
    09:00 +26°C° 0 mm 2 m/s 665 mmHg 49%
    10:00 +29°C° 0 mm 2 m/s 666 mmHg 36%
    11:00 +30°C° 0 mm 3 m/s 666 mmHg 33%
    12:00 +33°C° 0 mm 3 m/s 665 mmHg 30%
    13:00 +34°C° 0 mm 4 m/s 665 mmHg 27%
    14:00 +34°C° 0 mm 4 m/s 664 mmHg 28%
    15:00 +34°C° 0 mm 4 m/s 664 mmHg 29%
    16:00 +33°C° 0 mm 4 m/s 663 mmHg 30%
    17:00 +30°C° 0 mm 4 m/s 663 mmHg 35%
    18:00 +27°C° 0 mm 3 m/s 663 mmHg 41%
    19:00 +25°C° 0 mm 3 m/s 662 mmHg 47%
    20:00 +24°C° 0 mm 3 m/s 663 mmHg 51%
    21:00 +22°C° 0 mm 3 m/s 663 mmHg 55%
    22:00 +21°C° 0 mm 3 m/s 664 mmHg 60%
    23:00 +20°C° 0 mm 3 m/s 663 mmHg 69%
    Arată mai mult